Change the Weather History Date:

Monday, November 7, 2011

  Actual Average Record
Temperature  
Mean Temperature 66 °F -  
Max Temperature 78 °F 70 °F 84 °F (2005)
Min Temperature 53 °F 49 °F 26 °F (1959)
Growing Degree Days 16 (Base 50)    
Moisture  
Dew Point 56 °F    
Average Humidity 85    
Maximum Humidity 100    
Minimum Humidity 52    
Precipitation  
Precipitation 0.00 in - - ()
Sea Level Pressure  
Sea Level Pressure 30.19 in    
Wind  
Wind Speed 5 mph (East)    
Max Wind Speed 15 mph    
Max Gust Speed 18 mph    
Visibility 7 miles    
Events Rain    
Averages and records for this station are not official NWS values.
T = Trace of Precipitation, MM = Missing Value Source: NWS Daily Summary

Daily Weather History Graph

Daily Weather History Graph

Search for Another Location

Airport or City:

Trip Planner

Search our weather history database for the weather conditions in past years. The results will help you decide how hot, cold, wet, or windy it might be!

Date:

Astronomy

Nov. 07, 2011 Rise Set
Actual Time 6:13 AM CST 5:02 PM CST
Civil Twilight 5:48 AM CST 5:27 PM CST
Nautical Twilight 5:19 AM CST 5:55 PM CST
Astronomical Twilight 4:51 AM CST 6:24 PM CST
Moon 3:05 PM CST (11/7) 3:24 AM CST (11/7)
Length of Visible Light 11h 38m
Length of Day
10h 48m
Waxing Gibbous, 92% of the Moon is Illuminated
Nov 7
Waxing Gibbous
Nov 10
Full
Nov 18
Last Quarter
Nov 25
New
Dec 2
First Quarter

Hourly Weather History & Observations

Time (CST) Temp. Dew Point Humidity Pressure Visibility Wind Dir Wind Speed Gust Speed Precip Events Conditions
12:53 AM 61.0 °F 54.0 °F 78% 30.23 in 10.0 mi East 5.8 mph - N/A   Clear
1:53 AM 61.0 °F 55.0 °F 81% 30.22 in 10.0 mi East 5.8 mph - N/A   Clear
2:53 AM 60.1 °F 55.9 °F 86% 30.22 in 10.0 mi ENE 5.8 mph - N/A   Clear
3:53 AM 61.0 °F 55.9 °F 83% 30.22 in 10.0 mi East 6.9 mph - N/A   Overcast
4:53 AM 61.0 °F 57.0 °F 87% 30.23 in 10.0 mi ENE 5.8 mph - N/A   Overcast
5:53 AM 59.0 °F 55.9 °F 90% 30.23 in 10.0 mi Calm Calm - N/A   Clear
6:53 AM 60.1 °F 55.0 °F 83% 30.24 in 10.0 mi ENE 4.6 mph - N/A   Clear
7:53 AM 64.0 °F 57.0 °F 78% 30.25 in 10.0 mi ENE 8.1 mph - N/A   Clear
8:53 AM 69.1 °F 57.9 °F 68% 30.26 in 10.0 mi East 6.9 mph - N/A   Clear
9:53 AM 72.0 °F 59.0 °F 64% 30.25 in 10.0 mi ENE 9.2 mph - 0.00 in Rain Light Rain
10:53 AM 75.0 °F 59.0 °F 57% 30.25 in 10.0 mi East 9.2 mph - 0.00 in   Partly Cloudy
11:53 AM 73.9 °F 57.9 °F 57% 30.21 in 10.0 mi East 11.5 mph - N/A   Partly Cloudy
12:53 PM 78.1 °F 59.0 °F 52% 30.18 in 10.0 mi SE 8.1 mph - N/A   Mostly Cloudy
1:53 PM 75.9 °F 59.0 °F 56% 30.17 in 10.0 mi SE 15.0 mph 18.4 mph 0.00 in   Clear
3:53 PM 72.0 °F 59.0 °F 64% 30.16 in 10.0 mi SE 9.2 mph - N/A   Clear
4:53 PM 68.0 °F 60.1 °F 76% 30.16 in 10.0 mi SE 6.9 mph - N/A   Clear
5:53 PM 64.9 °F 61.0 °F 87% 30.17 in 10.0 mi SE 4.6 mph - N/A   Clear
6:53 PM 64.9 °F 60.1 °F 84% 30.18 in 10.0 mi Calm Calm - N/A   Clear
7:53 PM 60.1 °F 57.9 °F 93% 30.19 in 10.0 mi Calm Calm - N/A   Clear
8:22 PM 57.2 °F 55.4 °F 94% 30.18 in 2.0 mi Variable 3.5 mph - N/A   Clear
8:31 PM 57.2 °F 55.4 °F 94% 30.18 in 10.0 mi Calm Calm - N/A   Clear
8:49 PM 57.2 °F 55.4 °F 94% 30.18 in 1.8 mi Calm Calm - N/A   Clear
8:53 PM 55.9 °F 55.0 °F 97% 30.19 in 1.0 mi Calm Calm - N/A   Unknown
9:06 PM 55.4 °F 53.6 °F 94% 30.18 in 1.2 mi Calm Calm - N/A   Clear
9:13 PM 53.6 °F 53.6 °F 100% 30.18 in 3.0 mi Calm Calm - N/A   Clear
9:21 PM 55.4 °F 53.6 °F 94% 30.18 in 1.5 mi Calm Calm - N/A   Clear
9:32 PM 55.4 °F 53.6 °F 94% 30.17 in 3.0 mi Calm Calm - N/A   Clear
9:38 PM 55.4 °F 53.6 °F 94% 30.17 in 1.0 mi Calm Calm - N/A   Unknown
9:45 PM 55.4 °F 53.6 °F 94% 30.17 in 0.5 mi Calm Calm - N/A   Unknown
9:50 PM 53.6 °F 53.6 °F 100% 30.16 in 1.5 mi Calm Calm - N/A   Partly Cloudy
9:53 PM 53.1 °F 52.0 °F 96% 30.17 in 6.0 mi Calm Calm - N/A   Partly Cloudy
10:53 PM 60.1 °F 57.9 °F 93% 30.14 in 7.0 mi Calm Calm - N/A   Clear
11:20 PM 57.2 °F 55.4 °F 94% 30.13 in 1.8 mi Calm Calm - N/A   Clear
11:27 PM 55.4 °F 55.4 °F 100% 30.12 in 0.2 mi Calm Calm - N/A   Clear
11:40 PM 55.4 °F 53.6 °F 94% 30.12 in 1.2 mi ENE 3.5 mph - N/A   Clear
11:42 PM 55.4 °F 55.4 °F 100% 30.11 in 4.0 mi ENE 3.5 mph - N/A   Clear
11:53 PM 57.0 °F 55.9 °F 96% 30.12 in 6.0 mi Calm Calm - N/A   Clear